This demonstration page uses our WeatherBlox Daily Observations layout. Learn more.

Left ArrowRight Arrow

41.12389, -100.76542

Hourly Observations for November 26, 2022

Temp ( °F °C ) Dew Point ( °F °C ) Humidity (%) Winds ( mph kmh ) Pressure ( in mb ) Visibility ( mi km ) Precip ( " mm )
12:53 am 00:53 Clear 24 -4.4 15 -9.4 68 68 Calm 30.03 1017 10 16 0.00 0.00
1:53 am 01:53 Clear 24 -4.4 15 -9.4 68 68 Calm 30.00 1016 10 16 0.00 0.00
2:53 am 02:53 Clear 21 -6.1 14 -10 74 74 Calm 29.98 1015 10 16 0.00 0.00
3:53 am 03:53 Clear 20 -6.7 14 -10 77 77 Calm 29.96 1015 10 16 0.00 0.00
4:53 am 04:53 Clear 19 -7.2 13 -10.6 77 77 Calm 29.95 1014 10 16 0.00 0.00
5:53 am 05:53 Clear 16 -8.9 11 -11.7 80 80 NW 6 9 29.91 1013 10 16 0.00 0.00
6:53 am 06:53 Clear 18 -7.8 11 -11.7 73 73 Calm 29.90 1012 10 16 0.00 0.00
7:53 am 07:53 Sunny 20 -6.7 13 -10.6 74 74 S 8 13 29.92 1013 10 16 0.00 0.00
8:53 am 08:53 Sunny 32 0 16 -8.9 51 51 W 5 7 29.91 1013 10 16 0.00 0.00
9:53 am 09:53 Sunny 39 3.9 17 -8.3 40 40 W 10 17 29.90 1013 10 16 0.00 0.00
10:53 am 10:53 Sunny 46 7.8 18 -7.8 32 32 W 10 17 29.84 1011 10 16 0.00 0.00
11:53 am 11:53 Sunny 49 9.4 20 -6.7 31 31 NW 10 17 29.80 1009 10 16 0.00 0.00
12:53 pm 12:53 Sunny 53 11.7 21 -6.1 28 28 SSE 3 6 29.79 1009 10 16 0.00 0.00
1:53 pm 13:53 Sunny 64 17.8 23 -5 21 21 N 14 22 29.78 1008 10 16 0.00 0.00
2:53 pm 14:53 Sunny 62 16.7 24 -4.4 23 23 N 18 30 29.78 1008 10 16 0.00 0.00
3:53 pm 15:53 Sunny 61 16.1 24 -4.4 24 24 NNE 21 33 29.79 1009 10 16 0.00 0.00
4:53 pm 16:53 Sunny 56 13.3 25 -3.9 30 30 NNE 15 24 29.82 1010 10 16 0.00 0.00
5:53 pm 17:53 Clear 51 10.6 26 -3.3 37 37 N 14 22 29.86 1011 10 16 0.00 0.00
6:53 pm 18:53 Clear 47 8.3 28 -2.2 47 47 N 16 26 29.89 1012 10 16 0.00 0.00
7:53 pm 19:53 Clear 43 6.1 25 -3.9 49 49 N 13 20 29.93 1014 10 16 0.00 0.00
8:53 pm 20:53 Clear 40 4.4 26 -3.3 57 57 N 13 20 29.95 1014 10 16 0.00 0.00
9:53 pm 21:53 Clear 38 3.3 25 -3.9 59 59 N 12 19 29.94 1014 10 16 0.00 0.00
10:53 pm 22:53 Clear 36 2.2 22 -5.6 56 56 NNW 10 17 29.95 1014 10 16 0.00 0.00
11:53 pm 23:53 Clear 34 1.1 23 -5 64 64 NNW 8 13 29.94 1014 10 16 0.00 0.00

Powered by AerisWeather